GOOD ANCESTOR KILAKILA (64528 NORAD) Tracking and Keplerian Element Data

This shows tracking and keplerian element data for the satellite.

Feedback or suggestion? Click here.




ElementValue
Catalog64528
NameGOOD ANCESTOR KILAKILA
Epoch Orbit2751
Epoch Day353.27837463
Epoch Year2025
RAAN104.9949
Inclination97.451
Eccentricity0.0006543
Argument of Perigee94.1194
Mean Anonmoly266.0789
Mean Motion15.20419261
Decay Rate6.982E-05
L11 64528U 25135A 25353.27837463 .00006982 00000+0 32314-3 0 9999
L22 64528 97.4510 104.9949 0006543 94.1194 266.0789 15.20419261 27519



Live tracking and technical data element details for GOOD ANCESTOR KILAKILA (NORAD 64528). GOOD ANCESTOR KILAKILA can be tracked NOW for your location showing map with azimuth and elevation plus other details from your city location.







IsCatalogInMostPopularTable: catalog: 64528, numindb: 6
Update: records affected: 1



GetName: 64528 GOOD ANCESTOR KILAKILA

Hit Count: updated at: Mon, 20 Apr 2026 10:15:09 GMT